{"data":{"norad_id":81899,"intl_designator":"","name":"UNKNOWN","alt_names":[],"object_type":"UNKNOWN","status":"UNKNOWN","operator":null,"country":null,"launch_date":null,"launch_site_code":null,"launch_vehicle":null,"mission":null,"orbit_class":"UNKNOWN","rcs_meters":null,"size_class":null,"mass_kg":null,"dimensions":null,"purposes":[],"wikipedia_slug":null,"has_3d_model":false,"image_url":null,"decayed_at":null,"tle_current":{"epoch":"2026-05-23T07:52:13.790496Z","epoch_age_seconds":219832,"freshness":"STALE","line1":"1 81899U          26143.32793739  .00001993  00000+0  46345-2 0  9999","line2":"2 81899 102.4142 279.3045 0178641 229.8124 128.7227 13.20807412600313","mean_motion":13.20807412,"eccentricity":0.0178641,"inclination_deg":102.4142,"raan_deg":279.3045,"arg_perigee_deg":229.8124,"mean_anomaly_deg":128.7227,"bstar":0.0046345,"rev_number":60031,"period_min":109.02422161756,"perigee_km":1046.5889648771,"apogee_km":1316.6861013511,"semimajor_km":7559.7745331141,"source":"CELESTRAK","updated_at":"2026-05-25T13:38:11.087919Z"}}}